Terminal Aerodrome Forecast
Issued by NWS

Home | Current Version | Previous Version | Text Only | Print | Product List | Glossary On
Versions: 1 2 3 4 5 6 7 8 9 10 11 12 13 14 15 16 17 18 19 20 21 22 23 24 25
735
FTUS41 KOKX 091433 AAA
TAFGON
TAF AMD
KGON 091433Z 0915/1012 02009KT P6SM OVC015
     FM092200 04006KT P6SM OVC015
     FM100100 03004KT 2SM -SN BR BKN007 OVC010
     FM100900 01006KT 1SM -SN BR OVC007=

USA.gov is the U.S. government's official web portal to all federal, state and local government web resources and services.